Location: Longueuil
(45.5369°N, 73.5107°W)
Time: 22:53:15
(UTC-05:00)

ISS - Pass Details

Date: 03 December 2024
Orbit: 411 x 421 km, 51.6° (Epoch: 03 December)

Event Time Altitude Azimuth Distance (km) Brightness Sun altitude
Rises 17:07:39 0° 295° (WNW) 2,373 0.8 -9.6°
Reaches altitude 10° 17:09:50 10° 287° (WNW) 1,505 -0.1 -10.0°
Maximum altitude 17:13:00 38° 218° (SW) 661 -2.2 -10.5°
Drops below altitude 10° 17:16:08 10° 149° (SSE) 1,497 -1.1 -11.0°
Sets 17:18:18 0° 141° (SE) 2,356 -0.1 -11.4°
